Location: Taukkyan
(23.1052°N, 94.0030°E)
Time: 10:48:05
(UTC+00:00)

Cosmos 1626 Rocket - Pass Details

Date: 06 July 2020
Orbit: 602 x 632 km, 82.5° (Epoch: 14 August)

Event Time Altitude Azimuth Distance (km) Brightness Sun altitude
Exits shadow 13:14:03 - 168° (SSE) 2,860 6.6 -9.1°
Reaches altitude 10° 13:16:19 10° 160° (SSE) 1,987 5.7 -9.5°
Maximum altitude 13:20:24 38° 92° (E) 952 4.1 -10.3°
Drops below altitude 10° 13:24:32 10° 24° (NNE) 2,007 6.3 -11.1°
Sets 13:26:53 0° 16° (NNE) 2,919 7.2 -11.6°
